[Date Prev][Date Next][Thread Prev][Thread Next] - [Date Index][Thread Index][Author Index]

2 Line ISS Keps 4-2



ISS
1 25544U 98067A   04093.28912037  .00024626  00000-0  22443-3 0  4890
2 25544  51.6301 352.4966 0010581 347.2420 151.4678 15.67691941306404


----
Via the sarex mailing list at AMSAT.ORG courtesy of AMSAT-NA.
To unsubscribe, send "unsubscribe sarex" to Majordomo@amsat.org



AMSAT Top AMSAT Home